Torna al catalogo

BLOCK DM-SL R/B

AttivoGEO
NORAD 40896·ROCKET BODY·🇷🇺 Russia

Lanciato Sep 14, 2015 da Baikonur Cosmodrome

Loading…

TLE

AggiornatoSource: Space-Track

Epoca: Sep 13, 2026, 20:38 UTC

1 40896U 15048B   26256.85996782 -.00000156  00000-0  00000-0 0  9993
2 40896   9.3000  59.5743 0099794 150.5775 210.1115  0.98656691 39656

Traccia BLOCK DM-SL R/B in tempo reale con AllMySat

Download on the App Store